Terminal Aerodrome Forecast
Issued by NWS Grand Forks, ND

Home | Current Version | Previous Version | Graphics & Text | Print | Product List | Glossary On
Versions: 1 2 3 4 5 6 7 8 9 10 11 12 13 14 15
000
FTUS43 KFGF 141550 AAB
TAFFAR
TAF AMD
KFAR 141550Z 1416/1512 VRB05KT P6SM VCSH OVC120
      TEMPO 1416/1418 -SHRA
     FM141800 02010KT P6SM OVC050
     FM150000 36008KT P6SM OVC035
     FM150400 33008KT P6SM BKN050
     FM150500 32008KT P6SM SKC=

USA.gov is the U.S. government's official web portal to all federal, state and local government web resources and services.